This is the latest recevied weather packets stored in our database for station/object SQ9SMC-13. If no packets are shown the sender has not sent any weather packets the latest 10 day(s).
| Time | Temp. | Humidity | Pressure | Rain* | Wind** | Luminosity | Snow |
|---|---|---|---|---|---|---|---|
| 1777301104 | 15.56° C | 31% | 1022.9 hPa | 0 mm | - | 299 W/m² | - |
| 1777300804 | 14.44° C | 31% | 1022.9 hPa | 0 mm | - | 310 W/m² | - |
| 1777300504 | 15° C | 31% | 1023 hPa | 0 mm | - | 323 W/m² | - |
| 1777300204 | 15° C | 32% | 1023 hPa | 0 mm | - | 336 W/m² | - |
| 1777299903 | 15° C | 31% | 1023.1 hPa | 0 mm | - | 345 W/m² | - |
| 1777299605 | 15° C | 32% | 1023.2 hPa | 0 mm | - | 357 W/m² | - |
| 1777299303 | 15° C | 31% | 1023.3 hPa | 0 mm | - | 368 W/m² | - |
| 1777299003 | 14.44° C | 32% | 1023.3 hPa | 0 mm | - | 380 W/m² | - |
| 1777298703 | 15° C | 31% | 1023.3 hPa | 0 mm | - | 390 W/m² | - |
| 1777298403 | 15° C | 31% | 1023.1 hPa | 0 mm | - | 399 W/m² | - |
| 1777298103 | 15° C | 30% | 1023.2 hPa | 0 mm | - | 411 W/m² | - |
| 1777297805 | 15° C | 27% | 1023.2 hPa | 0 mm | - | 423 W/m² | - |
| 1777297503 | 15° C | 28% | 1023.3 hPa | 0 mm | - | 435 W/m² | - |
| 1777297203 | 15° C | 29% | 1023.3 hPa | 0 mm | - | 448 W/m² | - |
| 1777296904 | 15° C | 29% | 1023.6 hPa | 0 mm | - | 460 W/m² | - |
| 1777296604 | 15° C | 28% | 1023.4 hPa | 0 mm | - | 470 W/m² | - |
| 1777296304 | 15° C | 29% | 1023.4 hPa | 0 mm | - | 480 W/m² | - |
| 1777296005 | 14.44° C | 26% | 1023.6 hPa | 0 mm | - | 488 W/m² | - |
| 1777295704 | 14.44° C | 25% | 1023.6 hPa | 0 mm | - | 497 W/m² | - |
| 1777295404 | 15° C | 27% | 1023.5 hPa | 0 mm | - | 507 W/m² | - |
| 1777295104 | 14.44° C | 25% | 1023.7 hPa | 0 mm | - | 517 W/m² | - |
| 1777294805 | 14.44° C | 25% | 1023.5 hPa | 0 mm | - | 528 W/m² | - |
| 1777294505 | 14.44° C | 27% | 1023.7 hPa | 0 mm | - | 537 W/m² | - |
| 1777294203 | 14.44° C | 27% | 1023.7 hPa | 0 mm | - | 545 W/m² | - |
| 1777293906 | 15° C | 30% | 1023.9 hPa | 0 mm | - | 551 W/m² | - |
* Rain latest hour (hover to see other rain measurements)
** Current wind speed in m/s (hover to see current wind gust speed)